When you browse on this site, cookies collect data to enhance your experience and personalize the content and advertising you see.
Visit our Privacy Policy to learn more. By continuing to use the site, you agree to this use of cookies and data.
  • In Latvia
  • List of Countries
  • For 7 days
  • Water Temperature
  • Satellite Maps
  • Weather Map
  • Weather Widgets
  • user-avatar
    Login

    Hourly Weather Rozwienica

    Today, 20 July, Saturday

    Time Temperature Precipitation Wind Pressure Humidity
    00:00 +18°C° 0 mm 1 mps 742 mmHg 88%
    01:00 +18°C° 0 mm 1 mps 742 mmHg 89%
    02:00 +16°C° 0 mm 1 mps 742 mmHg 88%
    03:00 +16°C° 0.1 mm 1 mps 742 mmHg 89%
    04:00 +16°C° 0.1 mm 1 mps 742 mmHg 90%
    05:00 +16°C° 0.1 mm 1 mps 742 mmHg 90%
    06:00 +18°C° 0 mm 1 mps 742 mmHg 87%
    07:00 +19°C° 0 mm 1 mps 742 mmHg 85%
    08:00 +21°C° 0 mm 1 mps 742 mmHg 82%
    09:00 +21°C° 0.2 mm 2 mps 743 mmHg 77%
    10:00 +24°C° 0.2 mm 2 mps 743 mmHg 71%
    11:00 +25°C° 0.2 mm 2 mps 743 mmHg 65%
    12:00 +26°C° 0.3 mm 3 mps 743 mmHg 63%
    13:00 +26°C° 0.3 mm 3 mps 742 mmHg 61%
    14:00 +27°C° 0.3 mm 3 mps 742 mmHg 59%
    15:00 +27°C° 0.5 mm 3 mps 742 mmHg 61%
    16:00 +27°C° 0.5 mm 3 mps 742 mmHg 63%
    17:00 +27°C° 0.5 mm 3 mps 742 mmHg 65%
    18:00 +25°C° 0.2 mm 3 mps 742 mmHg 71%
    19:00 +24°C° 0.2 mm 2 mps 742 mmHg 76%
    20:00 +21°C° 0.2 mm 2 mps 742 mmHg 82%
    21:00 +21°C° 0 mm 2 mps 742 mmHg 84%
    22:00 +21°C° 0 mm 1 mps 742 mmHg 85%
    23:00 +20°C° 0 mm 1 mps 742 mmHg 87%

    Tomorrow, 21 July, Sunday

    Time Temperature Precipitation Wind Pressure Humidity
    00:00 +20°C° 0 mm 1 mps 742 mmHg 87%
    01:00 +19°C° 0 mm 1 mps 742 mmHg 87%
    02:00 +19°C° 0 mm 1 mps 742 mmHg 87%
    03:00 +18°C° 0 mm 2 mps 742 mmHg 87%
    04:00 +17°C° 0 mm 2 mps 742 mmHg 88%
    05:00 +17°C° 0 mm 2 mps 742 mmHg 88%
    06:00 +19°C° 0 mm 2 mps 742 mmHg 85%
    07:00 +21°C° 0 mm 2 mps 742 mmHg 81%
    08:00 +23°C° 0 mm 2 mps 742 mmHg 78%
    09:00 +25°C° 0.2 mm 2 mps 742 mmHg 74%
    10:00 +26°C° 0.2 mm 2 mps 743 mmHg 70%
    11:00 +28°C° 0.2 mm 2 mps 743 mmHg 66%
    12:00 +28°C° 0.1 mm 2 mps 743 mmHg 62%
    13:00 +29°C° 0.1 mm 3 mps 742 mmHg 59%
    14:00 +30°C° 0.1 mm 3 mps 742 mmHg 55%
    15:00 +30°C° 0.5 mm 4 mps 742 mmHg 58%
    16:00 +29°C° 0.5 mm 5 mps 742 mmHg 61%
    17:00 +28°C° 0.5 mm 6 mps 742 mmHg 64%
    18:00 +26°C° 1.8 mm 4 mps 742 mmHg 74%
    19:00 +22°C° 1.8 mm 3 mps 742 mmHg 83%
    20:00 +19°C° 1.8 mm 2 mps 742 mmHg 93%
    21:00 +19°C° 0.2 mm 2 mps 743 mmHg 94%
    22:00 +18°C° 0.2 mm 2 mps 743 mmHg 95%
    23:00 +18°C° 0.2 mm 2 mps 743 mmHg 95%

    Day after tomorrow, 22 July, Monday

    Time Temperature Precipitation Wind Pressure Humidity
    00:00 +18°C° 0 mm 3 mps 743 mmHg 95%
    01:00 +18°C° 0 mm 3 mps 743 mmHg 95%
    02:00 +18°C° 0 mm 4 mps 743 mmHg 94%
    03:00 +17°C° 0 mm 4 mps 743 mmHg 95%
    04:00 +17°C° 0 mm 4 mps 743 mmHg 95%
    05:00 +17°C° 0 mm 3 mps 744 mmHg 96%
    06:00 +18°C° 0 mm 4 mps 744 mmHg 93%
    07:00 +19°C° 0 mm 4 mps 744 mmHg 91%
    08:00 +19°C° 0 mm 4 mps 744 mmHg 88%
    09:00 +20°C° 0.9 mm 4 mps 745 mmHg 85%
    10:00 +21°C° 0.9 mm 5 mps 745 mmHg 83%
    11:00 +22°C° 0.9 mm 5 mps 745 mmHg 80%
    12:00 +22°C° 0.9 mm 5 mps 745 mmHg 77%
    13:00 +23°C° 0.9 mm 5 mps 745 mmHg 74%
    14:00 +23°C° 0.9 mm 5 mps 745 mmHg 71%
    15:00 +23°C° 0.2 mm 5 mps 745 mmHg 68%
    16:00 +25°C° 0.2 mm 5 mps 745 mmHg 65%
    17:00 +25°C° 0.2 mm 5 mps 745 mmHg 62%
    18:00 +22°C° 0.1 mm 4 mps 745 mmHg 68%
    19:00 +20°C° 0.1 mm 4 mps 745 mmHg 73%
    20:00 +19°C° 0.1 mm 3 mps 745 mmHg 79%
    21:00 +18°C° 0 mm 2 mps 745 mmHg 81%
    22:00 +17°C° 0 mm 2 mps 745 mmHg 83%
    23:00 +16°C° 0 mm 2 mps 745 mmHg 85%

    23 July, Tuesday

    Time Temperature Precipitation Wind Pressure Humidity
    00:00 +16°C° 0 mm 2 mps 745 mmHg 87%
    01:00 +15°C° 0 mm 2 mps 745 mmHg 89%
    02:00 +14°C° 0 mm 3 mps 745 mmHg 90%
    03:00 +15°C° 0 mm 2 mps 745 mmHg 91%
    04:00 +14°C° 0 mm 2 mps 745 mmHg 91%
    05:00 +14°C° 0 mm 2 mps 745 mmHg 92%
    06:00 +14°C° 0 mm 3 mps 745 mmHg 88%
    07:00 +17°C° 0 mm 3 mps 745 mmHg 84%
    08:00 +18°C° 0 mm 4 mps 745 mmHg 80%
    09:00 +19°C° 0.1 mm 4 mps 744 mmHg 75%
    10:00 +20°C° 0.1 mm 5 mps 744 mmHg 71%
    11:00 +21°C° 0.1 mm 5 mps 744 mmHg 66%
    12:00 +22°C° 0.1 mm 5 mps 744 mmHg 64%
    13:00 +23°C° 0.1 mm 5 mps 744 mmHg 61%
    14:00 +23°C° 0.1 mm 6 mps 743 mmHg 59%
    15:00 +23°C° 0.1 mm 6 mps 743 mmHg 59%
    16:00 +23°C° 0.1 mm 6 mps 743 mmHg 60%
    17:00 +23°C° 0.1 mm 5 mps 743 mmHg 61%
    18:00 +22°C° 0.2 mm 5 mps 743 mmHg 68%
    19:00 +20°C° 0.2 mm 4 mps 743 mmHg 75%
    20:00 +19°C° 0.2 mm 3 mps 743 mmHg 82%
    21:00 +18°C° 0.1 mm 3 mps 743 mmHg 86%
    22:00 +18°C° 0.1 mm 3 mps 743 mmHg 90%
    23:00 +17°C° 0.1 mm 3 mps 743 mmHg 93%

    24 July, Wednesday

    Time Temperature Precipitation Wind Pressure Humidity
    00:00 +16°C° 0 mm 3 mps 743 mmHg 94%
    01:00 +16°C° 0 mm 3 mps 743 mmHg 95%
    02:00 +16°C° 0 mm 3 mps 743 mmHg 96%
    03:00 +16°C° 0 mm 3 mps 743 mmHg 96%
    04:00 +14°C° 0 mm 3 mps 743 mmHg 97%
    05:00 +14°C° 0 mm 3 mps 743 mmHg 97%
    06:00 +16°C° 0 mm 3 mps 743 mmHg 95%
    07:00 +17°C° 0 mm 3 mps 743 mmHg 92%
    08:00 +19°C° 0 mm 3 mps 744 mmHg 90%
    09:00 +20°C° 0 mm 4 mps 744 mmHg 82%
    10:00 +22°C° 0 mm 4 mps 744 mmHg 74%
    11:00 +23°C° 0 mm 4 mps 744 mmHg 66%
    12:00 +25°C° 0 mm 4 mps 744 mmHg 62%
    13:00 +26°C° 0 mm 4 mps 744 mmHg 59%
    14:00 +26°C° 0 mm 4 mps 743 mmHg 55%
    15:00 +26°C° 0.1 mm 4 mps 743 mmHg 56%
    16:00 +26°C° 0.1 mm 4 mps 743 mmHg 58%
    17:00 +26°C° 0.1 mm 4 mps 743 mmHg 59%
    18:00 +25°C° 0.1 mm 3 mps 743 mmHg 65%
    19:00 +22°C° 0.1 mm 3 mps 743 mmHg 72%
    20:00 +21°C° 0.1 mm 2 mps 743 mmHg 78%
    21:00 +20°C° 0 mm 2 mps 743 mmHg 81%
    22:00 +20°C° 0 mm 1 mps 744 mmHg 84%
    23:00 +19°C° 0 mm 1 mps 744 mmHg 87%

    25 July, Thursday

    Time Temperature Precipitation Wind Pressure Humidity
    00:00 +19°C° 0 mm 1 mps 744 mmHg 88%
    01:00 +18°C° 0 mm 1 mps 744 mmHg 90%
    02:00 +18°C° 0 mm 1 mps 744 mmHg 92%
    03:00 +18°C° 0 mm 1 mps 744 mmHg 92%
    04:00 +16°C° 0 mm 1 mps 744 mmHg 93%
    05:00 +16°C° 0 mm 1 mps 744 mmHg 94%
    06:00 +19°C° 0 mm 1 mps 745 mmHg 89%
    07:00 +20°C° 0 mm 1 mps 745 mmHg 85%
    08:00 +22°C° 0 mm 1 mps 745 mmHg 80%
    09:00 +23°C° 0 mm 2 mps 745 mmHg 74%
    10:00 +24°C° 0 mm 2 mps 746 mmHg 67%
    11:00 +26°C° 0 mm 2 mps 746 mmHg 61%
    12:00 +27°C° 0 mm 2 mps 746 mmHg 57%
    13:00 +27°C° 0 mm 3 mps 745 mmHg 53%
    14:00 +28°C° 0 mm 3 mps 745 mmHg 49%
    15:00 +28°C° 0 mm 3 mps 745 mmHg 51%
    16:00 +28°C° 0 mm 3 mps 745 mmHg 52%
    17:00 +28°C° 0 mm 3 mps 745 mmHg 54%
    18:00 +26°C° 0 mm 2 mps 745 mmHg 61%
    19:00 +24°C° 0 mm 2 mps 745 mmHg 68%
    20:00 +23°C° 0 mm 2 mps 745 mmHg 74%
    21:00 +22°C° 0 mm 1 mps 745 mmHg 78%
    22:00 +20°C° 0 mm 1 mps 745 mmHg 81%
    23:00 +19°C° 0 mm 1 mps 745 mmHg 84%
    Show more